Sylvania, GA

11:32 AM EDT on July 22, 2017 (GMT -0400)
Plantation

Weather History for KJYL - February, 2013

Change the Weather History Date:

Thursday, February 14, 2013

  Actual Average (KSAV) Record (KSAV)
Temperature  
Mean Temperature 48 °F -  
Max Temperature 54 °F 65 °F 82 °F (1959)
Min Temperature 41 °F 41 °F 10 °F (1899)
Degree Days  
Heating Degree Days 17    
Moisture  
Dew Point 45 °F    
Average Humidity 87    
Maximum Humidity 100    
Minimum Humidity 67    
Precipitation  
Precipitation 0.00 in - - ()
Sea Level Pressure  
Sea Level Pressure 30.04 in    
Wind  
Wind Speed 3 mph (NW)    
Max Wind Speed 9 mph    
Max Gust Speed -    
Visibility 10 miles    
Events      
Averages and records for this station are not official NWS values.
T = Trace of Precipitation, MM = Missing Value Source: NWS Daily Summary

Daily Weather History Graph

Daily Weather History Graph

Search for Another Location

Airport or City:

Trip Planner

Search our weather history database for the weather conditions in past years. The results will help you decide how hot, cold, wet, or windy it might be!

Date:

Astronomy

Feb. 14, 2013 Rise Set
Actual Time 7:10 AM EST 6:11 PM EST
Civil Twilight 6:44 AM EST 6:36 PM EST
Nautical Twilight 6:16 AM EST 7:05 PM EST
Astronomical Twilight 5:47 AM EST 7:34 PM EST
Moon 9:29 AM EST (2/14) 10:52 PM EST (2/14)
Length of Visible Light 11h 51m
Length of Day
11h 01m
Waxing Crescent, 21% of the Moon is Illuminated
Feb 14
Waxing Crescent
Feb 17
First Quarter
Feb 25
Full
Mar 4
Last Quarter
Mar 11
New

Hourly Weather History & Observations

Time (EST) Temp. Windchill Dew Point Humidity Pressure Visibility Wind Dir Wind Speed Gust Speed Precip Events Conditions
12:15 AM 52.0 °F - 49.1 °F 90% 29.90 in 10.0 mi NW 9.2 mph - N/A   Clear
12:35 AM 51.8 °F - 49.1 °F 90% 29.91 in 10.0 mi NW 6.9 mph - N/A   Clear
12:55 AM 51.4 °F - 49.1 °F 92% 29.92 in 10.0 mi WNW 6.9 mph - N/A   Clear
1:15 AM 51.3 °F - 47.8 °F 88% 29.95 in 10.0 mi WNW 6.9 mph - N/A   Clear
1:35 AM 51.1 °F - 48.0 °F 89% 29.94 in 10.0 mi WNW 5.8 mph - N/A   Clear
1:55 AM 50.9 °F - 48.2 °F 90% 29.94 in 10.0 mi WNW 4.6 mph - N/A   Clear
2:15 AM 50.5 °F - 48.2 °F 92% 29.95 in 10.0 mi WNW 4.6 mph - N/A   Clear
2:35 AM 50.2 °F - 47.7 °F 91% 29.94 in 10.0 mi NW 5.8 mph - N/A   Clear
2:55 AM 50.0 °F - 47.3 °F 90% 29.97 in 10.0 mi WNW 4.6 mph - N/A   Clear
3:15 AM 49.5 °F - 46.8 °F 90% 29.97 in 10.0 mi NW 5.8 mph - N/A   Clear
3:35 AM 49.1 °F - 46.2 °F 90% 29.97 in 10.0 mi NNW 3.5 mph - N/A   Clear
3:55 AM 48.2 °F - 45.0 °F 89% 29.95 in 10.0 mi NNW 4.6 mph - N/A   Clear
4:15 AM 47.5 °F - 45.0 °F 91% 29.96 in 10.0 mi NW 5.8 mph - N/A   Clear
4:35 AM 47.1 °F - 43.9 °F 88% 29.97 in 10.0 mi NW 4.6 mph - N/A   Clear
4:55 AM 46.4 °F - 43.5 °F 90% 29.99 in 10.0 mi Calm Calm - N/A   Clear
5:15 AM 44.8 °F 43.3 °F 43.0 °F 93% 29.99 in 10.0 mi NW 3.5 mph - N/A   Clear
5:35 AM 44.1 °F - 42.4 °F 94% 29.99 in 10.0 mi Calm Calm - N/A   Clear
5:55 AM 44.6 °F - 43.9 °F 97% 29.99 in 10.0 mi Calm Calm - N/A   Clear
6:15 AM 44.4 °F - 43.0 °F 95% 30.01 in 10.0 mi Calm Calm - N/A   Clear
6:35 AM 44.8 °F 42.4 °F 42.3 °F 91% 30.01 in 10.0 mi NNW 4.6 mph - N/A   Clear
6:55 AM 44.6 °F 42.2 °F 42.3 °F 91% 30.02 in 10.0 mi NNW 4.6 mph - N/A   Clear
7:15 AM 44.2 °F - 42.3 °F 93% 30.04 in 10.0 mi Calm Calm - N/A   Clear
7:35 AM 43.7 °F 41.1 °F 41.5 °F 92% 30.04 in 10.0 mi NNW 4.6 mph - N/A   Clear
7:55 AM 43.7 °F 42.1 °F 41.0 °F 90% 30.04 in 10.0 mi NNW 3.5 mph - N/A   Clear
8:15 AM 44.2 °F 41.8 °F 41.2 °F 89% 30.04 in 10.0 mi North 4.6 mph - N/A   Clear
8:35 AM 45.0 °F 41.8 °F 41.2 °F 87% 30.07 in 10.0 mi NW 5.8 mph - N/A   Clear
8:55 AM 45.5 °F 43.2 °F 41.2 °F 85% 30.08 in 10.0 mi NNW 4.6 mph - N/A   Clear
9:15 AM 45.9 °F 44.6 °F 41.4 °F 84% 30.06 in 10.0 mi North 3.5 mph - N/A   Clear
9:35 AM 46.6 °F - 41.9 °F 84% 30.07 in 10.0 mi Calm Calm - N/A   Clear
9:55 AM 46.9 °F - 42.3 °F 84% 30.08 in 10.0 mi Calm Calm - N/A   Clear
10:15 AM 47.5 °F - 42.1 °F 82% 30.08 in 10.0 mi Calm Calm - N/A   Clear
10:35 AM 48.2 °F - 42.8 °F 82% 30.09 in 10.0 mi Calm Calm - N/A   Clear
10:55 AM 48.4 °F - 42.6 °F 80% 30.08 in 10.0 mi Calm Calm - N/A   Clear
11:15 AM 49.1 °F - 43.2 °F 80% 30.09 in 10.0 mi Calm Calm - N/A   Clear
11:35 AM 49.1 °F - 43.3 °F 81% 30.08 in 10.0 mi Calm Calm - N/A   Clear
11:55 AM 49.6 °F - 43.3 °F 79% 30.09 in 10.0 mi NW 3.5 mph - N/A   Clear
12:15 PM 50.2 °F - 44.1 °F 79% 30.07 in 10.0 mi Calm Calm - N/A   Clear
12:35 PM 50.4 °F - 43.5 °F 77% 30.08 in 10.0 mi Calm Calm - N/A   Clear
12:55 PM 51.1 °F - 44.1 °F 77% 30.06 in 10.0 mi Calm Calm - N/A   Clear
1:15 PM 51.3 °F - 43.7 °F 75% 30.07 in 10.0 mi Calm Calm - N/A   Clear
1:35 PM 52.3 °F - 44.2 °F 74% 30.07 in 10.0 mi Calm Calm - N/A   Clear
1:55 PM 52.2 °F - 43.5 °F 72% 30.04 in 10.0 mi Calm Calm - N/A   Clear
2:15 PM 52.7 °F - 44.2 °F 73% 30.04 in 10.0 mi Calm Calm - N/A   Clear
2:35 PM 53.6 °F - 43.9 °F 70% 30.05 in 10.0 mi Calm Calm - N/A   Clear
2:55 PM 53.8 °F - 43.9 °F 69% 30.04 in 10.0 mi Calm Calm - N/A   Clear
3:15 PM 54.1 °F - 44.4 °F 70% 30.05 in 10.0 mi Calm Calm - N/A   Clear
3:35 PM 54.5 °F - 43.9 °F 67% 30.04 in 10.0 mi Calm Calm - N/A   Clear
3:55 PM 54.7 °F - 44.1 °F 67% 30.03 in 10.0 mi Calm Calm - N/A   Clear
4:15 PM 54.1 °F - 43.3 °F 67% 30.03 in 10.0 mi Calm Calm - N/A   Clear
4:35 PM 54.1 °F - 43.7 °F 68% 30.03 in 10.0 mi Calm Calm - N/A   Clear
4:55 PM 54.5 °F - 44.4 °F 69% 30.02 in 10.0 mi Calm Calm - N/A   Clear
5:15 PM 54.0 °F - 45.0 °F 72% 30.04 in 10.0 mi Calm Calm - N/A   Clear
5:35 PM 53.2 °F - 45.9 °F 76% 30.05 in 10.0 mi Calm Calm - N/A   Clear
5:55 PM 52.3 °F - 45.9 °F 79% 30.04 in 10.0 mi Calm Calm - N/A   Clear
6:15 PM 51.3 °F - 47.5 °F 87% 30.05 in 10.0 mi Calm Calm - N/A   Clear
6:35 PM 50.2 °F - 47.5 °F 90% 30.06 in 10.0 mi Calm Calm - N/A   Clear
6:55 PM 49.3 °F - 47.3 °F 93% 30.06 in 10.0 mi Calm Calm - N/A   Clear
7:15 PM 49.6 °F - 47.1 °F 91% 30.06 in 10.0 mi Calm Calm - N/A   Clear
7:35 PM 48.7 °F - 47.7 °F 96% 30.07 in 10.0 mi Calm Calm - N/A   Clear
7:55 PM 48.4 °F - 47.3 °F 96% 30.07 in 10.0 mi Calm Calm - N/A   Clear
8:15 PM 47.7 °F - 47.1 °F 98% 30.08 in 10.0 mi Calm Calm - N/A   Clear
8:35 PM 46.6 °F - 46.0 °F 98% 30.09 in 10.0 mi Calm Calm - N/A   Clear
8:55 PM 45.9 °F - 45.9 °F 100% 30.07 in 7.0 mi Calm Calm - N/A   Clear
9:15 PM 45.9 °F - 45.9 °F 100% 30.08 in 7.0 mi Calm Calm - N/A   Clear
9:35 PM 44.8 °F - 44.8 °F 100% 30.09 in 7.0 mi Calm Calm - N/A   Clear
9:55 PM 45.5 °F - 45.5 °F 100% 30.09 in 7.0 mi Calm Calm - N/A   Clear
10:15 PM 45.5 °F - 45.5 °F 100% 30.10 in 7.0 mi Calm Calm - N/A   Clear
10:35 PM 45.5 °F - 45.5 °F 100% 30.09 in 7.0 mi Calm Calm - N/A   Clear
10:55 PM 44.6 °F - 44.6 °F 100% 30.09 in 5.0 mi Calm Calm - N/A   Clear
11:15 PM 43.9 °F - 43.9 °F 100% 30.09 in 5.0 mi Calm Calm - N/A   Clear
11:35 PM 42.8 °F - 42.8 °F 100% 30.08 in 4.0 mi Calm Calm - N/A   Clear
11:55 PM 41.7 °F - 41.7 °F 100% 30.09 in 5.0 mi Calm Calm - N/A   Clear